DW3263 Weather Reports


time (UTC)temp
C
wind
direction
speed
KPH
gust
KPH
rain 1hr
cm
rain 24hr
cm
rain mn
cm
humidity
%
barometer
mb
20260505101728 13 90 4.8 9.7 0.00 0.00 0.00 23 1008.2
20260505100519 13 90 1.6 4.8 0.00 0.00 0.00 23 1007.8
20260505095520 13 90 1.6 3.2 0.00 0.00 0.00 40 1007.7
20260505094731 15 0.0 3.2 0.00 0.00 0.00 49 1007.8
20260505093519 15 158 1.6 6.4 0.00 0.00 0.00 46 1007.6
20260505092519 14 158 1.6 4.8 0.00 0.00 0.00 44 1007.7
20260505091520 15 158 1.6 4.8 0.00 0.00 0.00 49 1007.8
20260505090730 15 0.0 3.2 0.00 0.00 0.00 49 1007.8
20260505085518 15 180 3.2 6.4 0.00 0.00 0.00 46 1007.9
20260505084518 14 0.0 1.6 0.00 0.00 0.00 46 1007.9
20260505083733 15 0.0 3.2 0.00 0.00 0.00 48 1007.7
20260505082518 15 0.0 3.2 0.00 0.00 0.00 53 1007.6
20260505081518 15 203 1.6 3.2 0.00 0.00 0.00 54 1007.7
20260505080519 15 203 1.6 4.8 0.00 0.00 0.00 54 1007.7
20260505075519 15 203 1.6 6.4 0.00 0.00 0.00 51 1007.5
20260505074519 15 0.0 1.6 0.00 0.00 0.00 53 1007.4
20260505073520 15 0.0 0.0 0.00 0.00 0.00 57 1007.4
20260505072519 16 0.0 1.6 0.00 0.00 0.00 60 1007.5
20260505071730 16 203 3.2 8.0 0.00 0.00 0.00 60 1007.5
20260505070519 16 270 1.6 4.8 0.00 0.00 0.00 61 1007.4
20260505065519 16 0.0 3.2 0.00 0.00 0.00 61 1007.4
20260505064519 16 0.0 0.0 0.00 0.00 0.00 62 1007.6
20260505063519 17 0.0 0.0 0.00 0.00 0.00 61 1007.6
20260505062730 17 270 3.2 6.4 0.00 0.00 0.00 61 1007.7
20260505061519 16 248 6.4 16.1 0.00 0.00 0.00 61 1007.7
20260505060732 16 0.0 3.2 0.00 0.00 0.00 61 1007.8
20260505060159 16 0.0 1.6 0.00 0.00 0.00 61 1007.7
20260505054519 17 180 1.6 4.8 0.00 0.00 0.00 61 1007.7
20260505053729 16 180 1.6 3.2 0.00 0.00 0.00 61 1007.7
20260505052519 16 0.0 3.2 0.00 0.00 0.00 61 1007.7
20260505051519 16 180 1.6 6.4 0.00 0.00 0.00 61 1007.7
20260505050519 16 0.0 4.8 0.00 0.00 0.00 61 1007.7
20260505041732 17 0.0 0.0 0.00 0.00 0.00 61 1007.5
20260505040519 16 0.0 0.0 0.00 0.00 0.00 60 1007.5
20260505035520 17 0.0 0.0 0.00 0.00 0.00 60 1007.3
20260505034520 17 0.0 3.2 0.00 0.00 0.00 59 1007.2
20260505033520 16 180 1.6 3.2 0.00 0.00 0.00 59 1007.3
20260505032520 17 0.0 0.0 0.00 0.00 0.00 58 1007.2
20260505031520 17 0.0 1.6 0.00 0.00 0.00 58 1007.2
20260505030520 17 0.0 3.2 0.00 0.00 0.00 57 1007.3
20260505025520 17 0.0 1.6 0.00 0.00 0.00 55 1007.4
20260505024519 18 180 1.6 4.8 0.00 0.00 0.00 54 1007.4
20260505023732 19 0.0 1.6 0.00 0.00 0.00 51 1007.4
20260505022520 19 180 3.2 6.4 0.00 0.00 0.00 50 1007.3
20260505021520 19 180 3.2 8.0 0.00 0.00 0.00 50 1007.0
20260505020520 20 203 6.4 11.3 0.00 0.00 0.00 49 1007.1
20260505015520 20 203 6.4 11.3 0.00 0.00 0.00 48 1007.2
20260505014520 20 158 8.0 12.9 0.00 0.00 0.00 48 1007.1
20260505013520 20 203 6.4 11.3 0.00 0.00 0.00 49 1007.2
20260505012522 20 203 8.0 12.9 0.00 0.00 0.00 48 1007.1
20260505010521 20 203 4.8 11.3 0.00 0.00 0.00 47 1007.1
20260505005520 20 180 6.4 12.9 0.00 0.00 0.00 45 1007.1
20260505004520 21 203 6.4 11.3 0.00 0.00 0.00 45 1006.9
20260505003520 21 203 4.8 9.7 0.00 0.00 0.00 45 1006.8
20260505002521 21 225 6.4 9.7 0.00 0.00 0.00 44 1006.6
20260505001520 21 203 6.4 11.3 0.00 0.00 0.00 44 1006.5
20260505000520 21 203 8.0 19.3 0.00 0.00 0.00 43 1006.4
20260504235519 21 180 9.7 16.1 0.00 0.00 0.00 44 1006.3
20260504234520 21 203 9.7 20.9 0.00 0.00 0.00 43 1006.3
20260504233733 21 180 9.7 32.2 0.00 0.00 0.00 43 1006.2
20260504232519 21 180 9.7 24.1 0.00 0.00 0.00 42 1006.0
20260504231521 22 180 12.9 29.0 0.00 0.00 0.00 42 1006.0
20260504230521 22 203 14.5 32.2 0.00 0.00 0.00 42 1006.0
20260504225520 22 203 11.3 27.4 0.00 0.00 0.00 42 1006.0
20260504224518 22 180 12.9 27.4 0.00 0.00 0.00 42 1006.0
20260504223521 22 203 11.3 32.2 0.00 0.00 0.00 42 1006.0
20260504222520 22 158 9.7 16.1 0.00 0.00 0.00 42 1006.1
20260504221520 22 225 14.5 29.0 0.00 0.00 0.00 40 1006.2
20260504220732 22 158 11.3 24.1 0.00 0.00 0.00 41 1006.2
20260504215519 23 203 11.3 24.1 0.00 0.00 0.00 41 1006.1
20260504214521 23 203 9.7 22.5 0.00 0.00 0.00 39 1006.1
20260504213521 23 203 11.3 24.1 0.00 0.00 0.00 37 1006.2
20260504212944 23 203 9.7 20.9 0.00 0.00 0.00 38 1006.1
20260504211518 23 225 11.3 20.9 0.00 0.00 0.00 37 1006.2
20260504210520 23 203 9.7 19.3 0.00 0.00 0.00 37 1006.0
20260504205519 23 180 9.7 25.7 0.00 0.00 0.00 36 1006.1
20260504204519 23 225 9.7 19.3 0.00 0.00 0.00 37 1006.3
20260504203520 23 225 9.7 17.7 0.00 0.00 0.00 38 1006.3
20260504202731 23 180 11.3 22.5 0.00 0.00 0.00 37 1006.6
20260504201519 23 203 8.0 17.7 0.00 0.00 0.00 38 1006.6
20260504200519 23 203 11.3 20.9 0.00 0.00 0.00 38 1006.9
20260504195734 23 225 6.4 16.1 0.00 0.00 0.00 39 1007.0
20260504194518 23 225 11.3 19.3 0.00 0.00 0.00 38 1007.3
20260504193731 22 270 11.3 20.9 0.00 0.00 0.00 39 1007.4
20260504192519 22 270 9.7 22.5 0.00 0.00 0.00 40 1007.6
20260504191733 22 248 11.3 24.1 0.00 0.00 0.00 39 1007.7
20260504190518 22 225 11.3 20.9 0.00 0.00 0.00 38 1007.9
20260504185518 22 203 11.3 24.1 0.00 0.00 0.00 39 1007.9
20260504184521 22 225 9.7 19.3 0.00 0.00 0.00 40 1008.2
20260504183945 22 225 11.3 20.9 0.00 0.00 0.00 41 1008.4
20260504182519 21 225 9.7 22.5 0.00 0.03 0.00 42 1008.5
20260504181521 21 203 9.7 20.9 0.00 0.03 0.00 43 1008.7
20260504180729 21 203 14.5 30.6 0.00 0.03 0.00 42 1008.7
20260504175519 21 203 11.3 20.9 0.00 0.03 0.00 43 1008.9
20260504174731 21 203 9.7 16.1 0.00 0.03 0.00 42 1009.0
20260504173519 20 180 11.3 25.7 0.00 0.03 0.00 43 1009.1
20260504172519 20 248 11.3 25.7 0.00 0.03 0.00 44 1009.3
20260504171729 20 203 9.7 22.5 0.00 0.03 0.00 44 1009.3
20260504170519 20 225 9.7 20.9 0.00 0.03 0.00 45 1009.4
20260504150519 17 203 8.0 17.7 0.00 0.03 0.00 46 1011.0
20260504140519 15 203 4.8 12.9 0.00 0.03 0.00 50 1011.4
20260504110519 6 293 1.6 4.8 0.00 0.03 0.00 61 1011.7